Wind_Speed
10 15 15 15 13 9 4 1 1 1 1 1 2 2 2 2 1 1 2 2 2 1 1 4 6 5 3 2 5 4 2 5 3 4 2 3 22 31 24 25 26 24 23 21 20 19 18 18 18 18 18 18 17 17 17 16 16 15 15 15 14 14 13 12 11 11 10 10 10 10 10 10 10 10 11 11 11 12 12 12 12 12 13 12 13 13 14 14 14 14 13 13 13 14 15 16 17
14 18 16 14 10 5 0 1 2 0 1 1 2 2 0 2 3 3 4 2 1 3 3 5 6 4 3 3 4 4 4 3 1 3 1 13 27 24 24 26 27 26 24 23 22 20 19 19 19 19 19 18 18 17 16 16 15 15 15 14 14 14 13 12 11 11 10 10 10 9 9 9 9 9 10 10 11 11 11 11 11 12 12 12 13 13 14 14 14 14 13 14 13 14 15 15 15
19 19 16 11 4 1 0 1 1 1 1 2 2 2 1 2 4 3 3 0 1 7 5 5 6 2 3 3 2 3 1 2 3 5 5 19 21 18 26 27 27 27 25 25 23 22 21 20 20 20 19 19 18 17 17 16 15 14 14 13 13 13 13 12 11 11 10 10 10 9 9 8 8 9 9 10 11 11 11 11 11 12 13 13 13 13 14 14 13 13 13 13 14 14 14 14 14
20 18 16 8 1 0 1 1 1 2 1 2 2 2 1 2 3 3 1 1 2 7 4 4 4 2 2 3 3 3 2 2 4 6 7 15 19 24 28 27 28 26 25 25 24 23 21 21 20 19 19 19 18 17 17 16 15 13 13 13 13 13 12 11 11 11 11 10 10 9 9 8 8 8 9 10 11 11 12 11 12 13 13 13 13 13 13 13 13 13 13 13 13 13 13 13 13
19 15 11 3 1 1 1 1 1 2 3 2 1 2 2 2 4 2 1 3 2 4 3 4 3 2 2 2 2 2 4 5 4 7 10 15 25 31 28 28 28 26 26 25 24 23 22 21 20 19 19 18 18 17 16 15 14 13 13 13 12 12 12 11 11 11 11 11 10 9 9 8 8 8 9 10 10 11 12 11 12 12 12 12 13 13 13 13 13 13 12 12 13 13 13 12 12
15 10 5 1 1 0 0 1 2 3 4 2 2 1 4 4 5 3 3 5 2 2 2 3 5 4 2 2 3 2 5 6 6 10 15 21 29 31 29 29 27 26 25 24 24 23 23 21 20 20 19 18 18 17 16 15 14 14 13 13 12 12 11 11 12 12 12 11 10 9 9 8 8 9 9 10 11 11 11 11 12 12 12 12 13 13 13 13 12 12 12 12 12 12 12 12 12
12 7 2 1 0 0 0 2 3 3 3 3 2 3 6 5 5 4 6 6 1 2 1 2 8 7 2 1 3 3 6 7 8 13 20 27 31 31 30 29 27 26 25 24 23 22 22 21 21 20 19 19 18 17 15 14 14 13 13 13 12 12 12 12 12 12 12 11 10 9 9 8 8 9 10 10 11 11 11 10 11 11 11 12 13 13 13 12 12 12 12 11 11 11 12 11 12
9 4 0 1 0 1 1 2 4 3 2 4 3 4 7 7 4 6 8 6 3 1 1 5 8 6 3 3 3 3 9 9 11 19 27 31 32 30 30 29 27 25 24 24 23 22 21 21 20 18 18 17 17 16 15 14 14 14 13 12 13 12 12 12 12 12 11 10 10 9 9 8 8 9 10 10 11 11 10 10 11 11 12 12 12 12 12 12 11 12 11 11 11 11 11 11 11
5 2 1 0 1 1 2 3 3 2 2 3 4 6 8 9 5 5 8 4 4 4 5 8 6 5 4 7 5 3 10 14 17 24 29 31 31 30 29 28 28 26 24 23 22 22 21 20 18 17 16 16 16 15 15 14 14 14 13 12 13 12 11 12 12 12 11 10 10 9 9 8 8 9 10 10 10 10 10 10 11 11 12 12 12 12 12 12 11 11 11 11 11 11 11 11 11
1 2 0 1 1 1 3 2 2 1 2 2 3 5 7 9 6 4 4 4 6 6 7 6 7 8 8 8 5 4 12 21 24 25 27 30 30 28 26 27 28 27 25 24 23 22 20 18 17 17 16 15 15 15 15 14 13 14 13 13 12 12 12 11 12 12 12 11 10 10 9 9 9 9 9 10 10 10 10 11 11 11 12 11 11 11 11 11 11 11 11 11 11 11 11 11 11
1 1 0 1 1 2 3 2 2 2 1 2 5 5 5 6 6 3 3 4 5 7 9 8 8 11 10 6 3 8 19 24 24 25 26 28 28 26 25 25 26 26 26 25 23 21 19 18 17 16 15 15 15 15 15 14 13 13 13 13 13 12 12 11 12 12 11 11 11 11 9 9 9 9 10 10 10 10 10 11 11 12 12 11 10 10 10 10 11 11 11 11 11 11 11 11 11
0 1 1 1 1 1 2 3 3 1 1 2 5 6 4 4 4 4 5 4 6 10 9 7 8 9 9 4 3 13 20 20 22 25 27 27 25 24 24 24 25 26 26 25 23 21 19 18 17 16 15 15 15 15 15 15 14 14 14 14 13 12 12 12 12 12 11 11 11 10 9 9 9 9 10 10 10 10 10 11 11 12 11 11 10 10 10 9 10 10 10 10 10 10 10 10 11
1 2 1 1 1 1 2 3 2 1 1 2 5 5 4 3 3 3 3 3 7 11 8 6 9 7 7 5 5 11 15 18 23 25 26 25 23 23 23 24 25 25 25 24 23 20 20 18 17 16 15 15 15 15 15 15 15 14 14 14 13 12 12 12 12 11 11 11 11 10 10 9 9 9 10 10 10 10 10 11 11 11 11 10 10 10 10 9 9 9 9 9 9 10 10 10 11
1 1 2 1 1 1 2 1 2 1 1 4 6 5 4 3 3 2 1 4 5 6 7 8 10 10 8 7 6 6 11 21 25 25 25 23 23 22 23 24 24 24 23 22 21 20 20 18 17 17 16 16 15 15 15 15 15 14 14 14 14 13 12 12 12 11 11 12 11 11 10 10 9 9 9 9 10 10 9 10 10 11 11 10 10 10 10 9 9 9 9 9 9 9 9 10 11
3 1 2 1 2 1 1 1 1 1 2 4 5 4 5 3 2 3 3 3 2 1 6 8 6 7 8 10 8 9 16 26 26 25 25 23 22 22 22 23 22 23 22 21 21 20 19 18 18 17 17 17 16 16 16 15 15 15 14 14 14 13 13 12 12 12 12 13 12 11 11 10 10 9 9 9 9 9 9 9 10 10 10 9 9 9 10 9 9 8 8 9 8 9 9 10 10
3 0 1 1 2 2 1 1 1 2 2 3 4 3 6 4 2 4 2 1 4 0 3 6 4 3 9 8 11 19 26 29 27 26 25 24 22 21 22 21 21 21 21 21 21 20 19 19 18 18 18 17 16 16 15 15 16 15 15 14 14 13 13 13 13 12 12 12 12 11 10 10 10 10 9 8 8 9 9 9 9 9 9 9 9 9 9 9 9 9 8 8 9 9 9 9 10
1 0 1 2 2 1 1 1 1 3 3 5 6 3 6 4 1 2 1 2 5 1 2 4 1 5 10 8 18 29 31 30 28 27 25 23 22 21 21 21 21 21 20 21 21 20 19 19 18 19 19 17 17 16 15 15 15 15 15 14 13 13 13 13 13 12 11 11 11 11 11 10 10 10 9 8 8 8 8 9 9 9 9 9 9 9 9 9 9 9 8 9 9 10 9 9 9
1 1 1 2 3 2 2 2 1 4 5 6 6 5 6 6 3 1 1 4 4 2 4 5 5 8 12 18 28 31 30 30 28 26 23 21 20 19 19 21 22 20 20 21 21 21 20 19 19 19 18 17 17 16 16 15 15 15 14 13 13 13 13 13 12 12 11 11 11 11 11 10 10 9 9 9 7 8 7 8 9 8 8 8 9 9 9 9 9 9 9 9 9 10 9 9 8
3 2 2 3 3 3 3 4 3 3 6 8 7 6 6 5 4 1 2 4 2 4 7 8 10 11 15 22 28 28 29 29 27 25 21 20 19 19 19 20 21 21 22 21 21 21 20 20 20 20 19 18 17 16 16 15 15 15 14 14 13 13 13 13 13 12 12 12 11 11 11 10 10 9 9 8 8 8 6 7 8 8 8 8 8 9 9 9 9 9 9 8 9 9 8 8 8
4 2 2 5 4 2 3 5 4 4 9 10 7 6 6 4 3 0 4 7 3 5 9 11 13 14 18 20 23 26 28 26 25 24 21 20 20 20 20 20 20 21 23 22 22 22 21 21 21 21 20 19 18 17 16 15 17 16 15 15 14 14 14 14 13 13 13 12 12 11 11 10 9 9 9 8 8 8 7 6 7 7 8 8 8 10 10 10 10 10 8 8 9 8 7 7 7
3 5 4 4 3 1 2 5 5 7 9 10 9 8 6 4 3 2 6 8 3 5 8 11 15 18 21 19 20 24 25 23 23 22 20 20 19 20 20 21 21 21 22 22 22 22 22 22 22 22 20 20 19 18 17 17 17 17 16 16 15 15 14 14 13 13 13 12 12 11 11 10 9 9 9 8 8 8 7 7 7 7 7 8 9 10 11 11 11 10 9 9 9 8 7 6 6
3 6 7 3 2 2 2 7 6 7 8 8 10 9 7 4 3 3 7 6 3 4 4 9 16 18 22 20 19 22 21 20 20 21 20 20 20 19 20 21 21 20 21 21 22 23 24 23 23 22 21 21 20 19 18 18 18 17 17 17 16 15 14 14 13 13 12 12 11 11 11 10 10 10 9 8 8 8 8 8 8 8 7 8 9 10 11 11 11 10 9 9 8 7 6 6 6
5 5 6 4 3 2 3 8 7 7 8 8 8 7 7 6 5 4 6 3 2 2 2 7 16 19 23 21 18 20 18 17 19 21 21 21 21 21 21 21 21 22 21 22 22 23 24 24 24 23 22 22 21 20 19 19 19 18 18 17 16 15 15 15 14 12 12 12 11 10 11 11 10 10 9 9 9 8 8 8 8 8 8 8 8 10 11 11 10 9 9 8 7 6 6 6 5
7 6 5 5 6 5 5 8 8 8 8 7 7 7 7 7 6 5 3 1 2 2 3 4 16 21 22 18 16 18 17 18 19 21 23 23 23 22 22 22 22 23 21 22 23 24 25 25 25 24 24 24 23 21 20 20 19 19 19 18 17 16 15 15 14 12 12 12 11 11 11 11 10 10 9 10 9 9 8 8 8 8 8 8 7 8 9 10 9 8 8 8 6 5 5 5 5
8 8 7 5 6 7 7 8 8 8 6 7 10 8 6 5 6 5 3 3 2 2 1 3 14 19 17 16 17 16 15 17 19 21 21 21 22 22 21 22 22 22 22 23 24 24 25 25 25 25 25 25 24 22 21 21 20 20 19 18 17 16 15 15 13 13 12 12 12 12 12 11 10 10 10 10 10 9 8 8 8 8 8 7 6 6 7 8 8 8 8 8 6 5 4 5 5
7 9 8 6 6 9 9 9 9 8 6 8 11 8 5 5 5 5 5 6 4 3 2 4 14 18 15 15 16 15 15 17 19 20 20 21 22 22 21 22 22 23 23 24 24 25 25 25 25 26 26 25 24 23 22 22 21 21 20 18 17 16 16 15 13 13 13 13 13 13 12 11 11 10 10 10 10 10 9 9 9 8 7 6 5 5 6 7 8 8 8 8 7 6 5 5 4
5 6 7 9 8 10 11 10 9 8 6 8 10 9 6 4 3 2 6 7 5 6 5 6 14 18 15 14 15 15 15 18 21 21 19 20 22 22 22 22 23 23 24 24 25 25 25 25 25 26 26 25 25 24 23 23 22 22 20 18 17 17 16 15 13 13 14 13 13 13 12 12 11 10 10 10 10 10 10 10 9 8 7 6 5 5 6 6 7 9 9 8 7 6 5 5 5
6 6 7 6 8 10 9 10 10 8 6 6 9 10 5 1 2 3 7 7 8 11 8 9 16 17 15 14 14 13 14 19 23 21 20 21 22 24 24 24 24 24 25 26 26 25 25 26 26 26 26 25 25 24 24 24 23 22 20 19 18 17 16 15 14 14 14 14 13 13 13 12 11 11 10 10 10 10 9 10 9 8 7 6 6 6 6 6 8 9 9 9 7 6 6 6 6
6 6 5 1 7 7 7 7 8 7 5 8 9 8 2 4 4 5 9 8 9 11 9 12 17 16 14 13 13 12 14 19 22 21 22 23 24 26 26 26 27 25 26 27 26 25 26 26 26 25 25 25 25 25 25 24 23 22 20 19 18 17 17 16 15 15 14 14 13 13 13 12 12 11 11 10 10 10 10 10 10 9 8 7 7 7 8 8 8 9 10 9 7 7 6 6 6
4 3 2 5 4 3 6 5 7 6 6 12 8 3 5 9 7 7 8 8 9 10 9 12 16 15 13 12 12 12 14 18 19 22 24 25 25 26 27 27 28 26 26 26 26 26 27 27 26 25 26 25 25 26 25 24 23 22 20 19 18 17 17 16 16 15 15 14 14 14 13 13 12 12 12 12 11 11 11 11 11 11 9 8 8 9 9 9 10 10 10 9 9 8 7 6 6
2 1 2 4 1 3 7 5 9 6 5 12 6 1 5 9 9 10 9 10 11 12 11 12 15 15 12 12 13 12 14 18 21 24 25 26 26 26 27 27 28 27 26 28 27 27 27 27 26 25 26 25 25 26 25 24 23 22 21 19 18 18 17 17 16 15 15 14 15 15 14 14 13 13 13 13 13 13 12 12 11 11 10 9 9 9 9 10 11 10 10 10 10 9 8 7 6
1 1 1 2 2 3 5 6 10 6 5 11 6 2 3 6 10 11 10 11 13 15 13 12 15 16 13 12 13 12 13 18 22 25 26 27 27 27 28 29 29 28 28 29 29 28 27 27 27 25 26 26 26 27 25 23 22 21 21 20 19 18 17 17 17 16 14 14 14 15 15 14 14 14 14 13 13 13 12 11 10 11 11 10 9 10 10 11 10 10 11 10 10 10 9 8 7
3 1 1 3 2 2 3 6 9 4 5 9 7 2 1 4 9 10 10 12 12 15 14 13 16 17 14 12 12 12 12 14 17 22 27 28 27 28 29 30 31 30 30 30 29 29 28 28 28 26 26 27 26 27 25 23 22 21 20 20 19 19 18 18 18 16 15 14 14 14 14 14 14 14 14 13 13 13 12 11 10 11 11 10 9 10 11 11 10 10 11 10 10 9 10 9 8
3 2 0 2 2 3 3 5 8 5 6 9 9 5 4 2 10 11 12 14 13 15 16 14 15 16 14 12 13 12 13 13 14 20 27 29 29 29 30 32 32 31 31 31 31 31 30 29 29 26 26 27 26 26 25 23 22 21 20 20 19 19 19 18 18 17 16 15 15 14 14 14 14 14 13 13 12 12 12 11 11 11 11 10 9 10 11 11 10 10 10 10 9 9 10 10 9
1 1 2 3 1 3 4 4 8 10 7 8 10 8 7 3 9 11 11 14 14 16 17 14 14 17 14 13 14 13 14 14 14 21 29 31 30 30 31 32 33 32 31 31 31 32 31 29 29 27 26 27 27 26 24 23 22 21 21 20 20 20 19 19 19 18 17 17 15 14 14 14 14 14 13 12 12 12 12 12 11 12 12 10 10 11 11 11 11 10 10 9 9 9 9 9 9
3 1 2 3 3 1 4 3 7 13 10 9 11 11 9 6 9 11 11 13 13 14 14 12 13 16 15 13 14 14 15 14 17 24 29 31 31 31 32 32 33 33 32 32 31 32 31 30 29 28 27 27 27 26 25 24 23 22 22 22 21 21 20 20 19 18 18 18 16 14 15 15 15 15 13 13 13 12 11 11 11 11 12 11 11 11 11 11 11 10 10 9 9 8 9 9 8
2 3 3 4 4 3 4 3 6 12 10 9 13 11 9 9 11 12 12 12 12 13 14 11 11 13 15 15 16 16 15 15 19 25 29 31 32 33 33 32 33 32 32 34 33 33 33 31 31 30 28 28 28 28 27 26 26 25 24 23 22 21 20 20 20 19 19 18 17 15 16 16 16 15 14 13 13 12 11 11 11 11 12 12 12 11 11 10 10 9 8 8 7 7 8 9 9
4 3 4 4 3 5 5 4 5 12 9 6 9 9 7 8 11 12 13 14 15 16 17 15 13 13 12 15 17 17 14 13 17 20 25 30 31 33 33 32 33 32 32 34 35 34 34 33 33 32 30 30 30 30 28 28 28 27 26 24 23 21 21 21 21 20 19 18 17 16 16 16 16 15 14 13 13 12 12 11 11 12 12 12 12 11 10 9 9 8 7 7 6 6 7 9 10
4 3 3 3 3 4 5 4 1 8 7 3 3 5 4 4 6 9 13 15 14 16 18 16 15 15 13 14 16 16 15 14 15 17 21 27 30 32 32 31 33 34 33 35 36 36 34 33 34 33 31 31 32 31 30 30 29 28 26 24 23 22 22 22 21 19 17 17 17 16 16 16 15 14 14 13 13 13 13 12 11 12 12 11 11 11 11 10 9 9 8 7 6 7 7 8 11
4 4 3 2 1 1 3 3 4 4 3 0 5 4 1 1 1 6 11 11 9 12 14 12 13 15 15 14 15 16 17 16 17 17 18 23 28 31 31 31 33 34 34 35 36 36 35 35 35 34 34 33 33 32 31 31 29 27 24 22 22 22 21 22 21 19 18 17 18 17 17 17 16 14 13 13 13 13 13 12 12 13 13 12 12 12 12 11 10 10 9 8 7 7 6 6 10
4 5 6 3 2 4 5 1 2 3 3 2 6 4 3 3 5 6 7 7 7 9 12 10 11 14 12 12 14 16 17 17 17 18 17 20 25 29 31 32 33 33 33 35 37 37 36 36 36 36 36 35 34 33 32 31 29 27 24 21 20 19 18 20 22 22 21 21 20 19 19 18 17 16 14 14 13 13 12 12 12 13 13 13 12 12 12 11 11 10 10 10 8 6 7 6 8
5 6 8 6 5 8 7 2 2 2 1 3 4 3 4 3 7 7 5 8 9 8 12 13 12 13 12 11 14 15 16 17 17 18 18 19 23 28 31 33 33 33 34 36 38 38 37 37 37 36 36 36 35 33 32 32 30 28 26 23 21 20 19 22 25 25 25 24 22 20 19 19 19 17 16 14 13 13 12 12 12 13 12 12 11 11 11 12 12 12 11 11 7 6 7 7 9
5 5 7 8 8 9 7 4 3 1 3 4 5 4 3 2 6 10 10 11 12 10 13 15 13 14 14 12 13 15 15 16 16 17 18 19 23 27 29 32 34 34 35 37 38 38 38 37 37 37 37 37 36 34 33 32 31 30 29 27 26 25 23 24 27 28 27 25 23 21 20 20 20 18 17 15 14 13 12 12 12 12 12 11 11 11 12 13 13 13 12 11 7 6 7 8 10
6 5 6 7 8 8 7 6 5 4 1 1 4 3 1 2 5 9 12 11 12 13 14 16 15 15 16 14 14 15 16 16 15 17 18 19 23 27 30 33 36 36 37 37 37 38 38 38 39 38 37 37 37 36 34 33 33 32 31 29 28 28 27 26 27 28 27 25 24 22 21 21 20 18 17 16 15 14 13 12 12 12 12 12 12 12 12 13 12 13 12 11 8 6 7 9 10
9 7 7 6 7 8 6 6 5 3 1 1 5 2 2 4 3 6 11 11 14 16 17 17 17 17 17 16 16 16 16 16 16 17 18 19 24 30 33 35 36 37 37 38 38 39 38 38 39 38 38 38 38 37 35 35 34 34 32 31 29 28 27 26 26 26 26 25 24 23 22 22 21 19 18 17 16 15 14 13 12 13 13 13 13 12 12 12 12 13 13 12 9 7 7 10 11
10 4 4 3 4 5 4 5 4 2 2 4 7 6 3 4 3 6 9 10 14 17 17 17 17 17 17 16 17 16 15 15 15 16 18 21 27 32 34 35 36 36 37 39 39 39 38 38 38 39 39 38 38 38 37 36 35 34 34 33 31 29 26 25 26 26 26 25 24 23 22 22 21 20 19 18 17 15 14 14 13 13 13 13 13 12 11 11 12 12 12 12 10 8 7 9 10
7 1 0 0 0 1 1 2 2 3 1 6 8 12 8 3 3 5 9 13 17 15 13 14 16 17 18 17 17 17 15 14 15 15 16 22 28 32 33 34 35 36 37 38 37 38 39 39 39 40 40 39 38 38 38 38 36 35 35 35 33 31 27 26 27 27 26 25 24 24 22 21 21 20 19 19 17 16 15 13 13 12 12 12 13 12 11 11 11 11 11 12 11 10 7 8 10
0 1 1 1 2 2 3 4 2 3 4 7 7 10 8 4 5 6 11 16 17 15 13 16 19 19 18 17 16 16 16 14 15 14 15 18 21 25 30 32 34 35 35 36 37 37 38 39 40 39 39 38 38 39 39 39 38 36 36 36 35 33 30 28 29 29 28 27 26 25 23 21 21 20 20 19 18 17 16 14 13 13 13 13 13 12 12 11 11 11 11 12 12 12 9 8 9
5 3 4 3 1 2 1 2 1 3 5 6 5 7 5 5 6 8 13 16 14 14 14 17 19 19 17 16 16 15 14 15 15 14 14 15 15 19 26 30 32 34 35 37 37 37 37 39 40 39 39 39 39 40 40 40 40 39 38 37 37 35 32 30 31 31 31 30 28 27 26 24 23 23 22 22 20 19 18 17 15 15 15 14 14 13 13 12 11 12 12 12 13 13 12 11 10
5 1 4 3 2 2 2 3 0 2 4 4 3 5 3 4 5 10 14 14 14 14 15 16 18 19 19 17 16 14 14 15 15 14 14 14 15 19 26 30 32 33 36 38 38 38 38 38 39 40 40 40 40 40 41 41 41 41 39 39 38 36 34 32 32 32 32 31 30 30 28 26 25 25 24 24 23 20 19 19 18 17 17 16 15 15 15 13 13 13 12 12 13 13 13 13 12
4 3 3 2 4 4 3 3 2 2 3 3 1 2 4 4 4 8 9 10 11 12 13 13 14 15 16 14 14 14 14 14 14 14 15 15 17 22 26 29 32 34 36 38 38 39 39 38 40 41 41 41 40 40 41 41 41 41 40 40 39 38 37 34 33 33 34 33 32 31 30 28 27 26 25 24 24 22 21 21 20 19 18 18 18 17 16 15 14 14 14 13 13 13 14 15 15
4 1 2 1 1 3 2 3 5 4 1 1 0 2 4 5 2 7 9 7 5 7 9 11 12 12 12 12 14 15 15 15 14 15 16 16 20 25 27 29 32 34 36 38 39 40 40 40 41 42 42 42 41 41 41 42 42 41 40 40 40 40 39 36 34 34 34 34 33 33 32 30 28 27 25 24 25 24 23 22 22 21 19 19 19 19 18 16 15 14 15 15 14 13 14 15 16
3 4 2 5 4 4 2 3 1 4 3 1 2 2 4 3 2 11 17 14 11 8 5 8 11 13 14 14 15 16 16 16 16 16 17 17 19 24 28 30 32 34 36 38 40 42 42 41 41 42 41 41 42 42 42 42 42 40 40 41 40 40 40 39 37 35 35 35 34 34 33 31 29 28 27 26 26 26 25 24 23 22 21 19 20 21 20 18 16 15 15 17 16 14 14 14 14
1 2 4 7 2 3 2 1 2 4 3 3 2 3 3 5 2 9 18 18 16 14 10 7 8 12 16 16 17 18 18 18 18 18 17 16 18 23 28 31 34 37 38 40 41 42 42 42 43 42 41 41 42 43 42 42 42 41 41 41 41 41 41 41 39 37 36 35 35 36 35 32 31 30 29 28 27 27 26 26 25 24 22 21 20 21 21 19 18 17 16 17 17 15 15 14 14
3 1 4 4 3 2 3 1 1 1 2 2 3 2 3 4 3 9 15 16 17 16 13 11 8 10 15 16 18 20 19 17 17 16 16 15 17 22 28 31 34 37 38 39 40 40 41 42 43 44 44 44 44 43 42 42 42 42 42 42 42 43 42 42 40 38 36 35 36 37 36 34 32 31 30 30 29 28 28 27 27 26 24 22 21 21 22 21 20 19 18 17 17 17 16 15 14
6 3 5 4 2 1 2 0 2 1 2 2 2 2 2 2 4 8 11 14 17 17 16 13 10 11 14 15 16 18 17 16 16 16 17 17 18 24 30 31 33 36 37 37 38 39 40 41 41 42 43 43 43 43 42 42 41 41 41 42 42 42 42 41 40 39 37 37 38 38 37 35 33 32 31 31 30 30 29 28 28 27 26 24 23 22 22 22 22 21 20 18 18 18 18 17 16
7 6 7 6 4 1 1 1 1 1 2 1 0 2 2 4 3 7 10 14 16 17 17 15 13 11 14 15 14 16 17 17 18 17 17 18 19 24 30 32 33 34 35 36 37 38 40 40 40 41 41 41 41 42 42 42 42 41 40 40 41 41 40 39 39 39 38 39 39 39 38 37 35 34 33 32 32 31 30 29 28 27 27 26 25 24 24 23 23 23 22 20 19 20 21 20 19
3 5 5 5 5 3 2 2 3 2 2 0 1 1 4 2 4 6 8 12 14 16 17 16 17 15 12 16 14 14 16 17 18 18 18 17 18 22 28 30 30 32 33 35 36 37 38 38 39 40 40 40 41 41 41 41 40 40 40 41 41 41 41 39 38 38 39 39 39 40 40 38 37 36 34 33 33 32 31 30 29 28 27 26 25 25 25 25 25 25 24 23 22 22 23 23 22
Wind_Direction
153 147 147 139 134 127 119 111 93 38 96 295 263 252 261 103 89 130 121 168 143 104 116 100 109 119 102 96 135 107 70 145 164 151 195 184 143 148 154 155 154 151 148 148 148 143 143 146 148 147 146 146 146 146 144 144 142 141 141 141 140 139 137 134 133 131 129 127 125 122 118 117 116 115 115 116 117 117 117 118 119 117 115 114 116 116 115 114 113 113 114 114 115 115 116 117 119
152 146 146 139 138 131 87 107 107 115 161 276 274 224 237 94 149 166 160 170 112 125 125 108 100 95 65 53 115 95 43 27 115 123 87 136 135 144 154 156 155 151 149 149 148 146 148 152 151 149 149 148 148 147 146 147 145 145 145 144 143 141 140 139 138 138 136 133 130 124 120 117 115 114 115 117 118 119 120 120 119 117 116 114 113 113 112 112 113 114 115 115 114 114 113 111 113
150 146 145 141 142 168 252 77 119 155 185 254 272 238 154 147 167 142 143 357 54 122 116 110 100 74 50 44 69 86 77 9 103 103 113 140 135 146 155 155 154 150 150 150 149 149 152 154 154 153 152 151 150 150 151 151 151 151 149 146 143 142 143 143 144 145 142 136 133 127 123 119 115 114 115 118 120 121 122 121 120 119 117 116 112 110 109 108 109 110 112 114 112 111 110 108 110
149 148 145 138 125 216 88 86 186 152 196 222 247 262 161 146 138 101 122 59 95 118 115 125 104 3 37 87 91 81 117 90 121 120 134 154 149 151 155 154 153 151 151 151 150 152 155 156 156 156 156 155 154 153 154 154 155 152 149 147 144 145 146 148 149 149 145 139 135 129 125 122 119 116 117 121 123 125 125 123 121 119 117 114 112 109 107 107 107 106 106 107 107 106 105 104 107
148 151 149 118 44 106 94 182 227 179 216 184 208 273 112 136 138 138 106 93 102 113 126 135 98 23 63 96 96 123 128 105 139 143 136 152 153 151 154 155 154 152 153 153 153 154 157 158 158 158 158 158 156 155 155 154 154 153 152 150 149 150 151 153 151 151 148 140 135 131 128 124 121 117 117 121 123 126 125 122 119 117 115 114 112 109 108 105 104 103 100 99 101 102 102 105 108
144 150 166 318 15 199 220 234 227 216 225 152 181 187 124 167 167 154 102 96 41 55 112 129 113 104 86 58 50 102 134 123 148 150 141 147 152 153 155 156 156 154 154 155 155 157 159 161 162 160 160 161 159 155 155 155 155 155 155 154 154 155 155 154 151 151 148 139 134 133 131 125 120 117 117 120 122 125 124 122 122 119 117 114 111 109 106 103 102 101 98 98 101 102 103 106 107
149 148 175 218 55 215 228 252 235 242 229 168 176 158 139 171 172 144 128 124 103 358 2 120 122 110 72 87 67 78 118 126 141 149 148 148 152 154 156 157 157 156 156 157 157 160 160 162 164 162 163 163 159 156 157 158 158 159 158 159 157 157 156 154 151 148 144 137 137 134 129 123 119 119 121 122 124 126 125 126 124 120 116 111 107 107 106 104 104 102 99 101 103 104 104 104 104
156 152 49 172 141 181 216 257 239 239 200 167 159 170 154 164 179 155 150 146 154 172 140 137 122 101 52 70 88 92 105 120 138 145 146 147 151 154 157 158 157 158 159 159 158 160 160 161 163 163 163 162 159 158 160 162 163 163 162 160 158 158 155 153 150 146 143 142 141 135 127 123 123 126 129 129 129 129 130 129 125 121 117 110 106 107 108 107 106 103 102 102 102 103 104 104 104
163 181 27 212 221 217 231 252 244 234 212 169 159 186 157 158 187 161 157 141 139 148 152 152 116 100 97 78 87 82 97 123 135 138 144 148 152 154 157 159 159 159 160 161 159 159 159 161 162 161 161 161 161 161 164 165 166 164 160 158 157 157 154 152 152 150 147 146 144 136 131 130 130 133 136 135 133 133 133 133 130 126 121 113 110 110 110 110 108 106 104 102 100 100 102 103 103
170 208 158 267 222 265 260 250 253 271 241 181 152 181 155 154 160 154 173 141 144 151 143 129 93 111 115 90 85 86 113 130 134 135 144 149 151 154 157 161 162 161 161 161 160 159 160 161 162 162 162 164 165 166 166 166 166 161 156 157 158 159 155 155 156 155 150 148 147 141 138 137 135 137 138 137 135 136 136 138 135 128 124 120 117 115 114 114 112 110 106 101 98 97 98 98 98
147 203 193 274 248 271 279 292 302 330 243 125 125 150 148 145 131 152 196 143 142 136 130 111 106 121 108 90 78 111 126 134 136 139 147 149 151 154 158 162 164 163 162 162 161 161 162 163 164 165 165 167 169 169 167 165 163 159 157 160 162 162 158 159 160 157 153 151 150 144 143 143 139 140 140 139 136 136 138 139 137 132 129 127 123 119 117 116 116 116 110 103 100 98 97 97 97
221 183 147 254 261 243 272 306 313 27 116 101 121 124 116 116 102 158 169 137 130 128 139 133 135 133 103 92 103 120 130 137 141 143 148 149 151 156 160 162 164 164 163 163 162 163 164 164 166 167 168 170 170 170 168 164 162 161 162 164 164 164 160 162 162 158 156 155 152 147 148 148 145 145 142 138 135 137 140 139 139 135 131 129 127 123 120 118 119 120 113 105 104 102 99 99 100
243 181 125 247 219 214 277 309 335 76 111 68 107 104 104 114 93 155 158 117 128 138 151 150 150 134 99 100 114 131 137 144 146 146 148 149 153 158 161 161 163 164 164 165 164 165 165 166 168 167 170 171 170 169 168 166 162 163 165 164 164 165 163 164 163 159 160 158 154 152 152 152 150 147 142 137 136 139 139 139 137 132 131 131 129 125 123 121 121 125 119 108 105 104 101 100 101
203 181 131 238 284 232 274 325 16 40 56 76 106 124 119 118 113 98 53 97 115 148 133 135 142 111 106 122 126 151 148 150 149 147 149 149 154 157 159 160 162 164 165 168 167 167 166 168 169 168 169 169 169 168 169 168 164 165 166 164 164 163 164 164 162 162 165 162 159 158 157 155 153 149 144 141 140 140 136 136 133 129 132 132 131 129 128 126 123 128 127 115 108 104 102 103 101
197 4 113 265 319 292 285 102 103 92 71 92 125 149 112 86 121 82 23 83 101 186 108 132 147 103 145 158 154 169 154 153 152 148 148 148 153 155 158 159 161 165 167 170 169 168 169 170 170 169 168 167 170 168 168 168 165 167 166 164 165 164 165 165 163 165 167 164 162 160 160 159 157 153 150 147 144 139 133 132 129 128 130 130 130 130 130 131 130 131 130 123 112 106 105 105 103
191 7 71 315 315 298 307 119 176 119 99 133 138 129 101 73 65 92 340 346 129 248 56 162 197 115 164 164 147 153 152 154 151 148 146 144 148 150 154 157 161 166 168 172 172 170 171 171 171 170 167 166 170 167 168 168 166 169 167 166 166 165 166 165 164 166 166 165 164 162 163 164 161 158 154 153 147 137 134 131 127 126 126 126 126 128 130 132 134 133 130 125 115 110 109 108 106
147 195 310 312 273 263 176 181 253 131 133 149 140 126 115 112 49 100 271 9 108 83 22 167 177 116 146 137 140 146 150 152 148 146 143 142 144 146 151 156 160 165 169 173 173 172 172 172 172 170 168 167 170 168 170 170 168 169 165 166 166 165 165 163 163 164 164 164 165 164 165 167 164 161 158 158 151 142 140 131 125 123 121 123 123 126 130 133 137 136 132 128 121 116 116 114 110
149 195 199 249 245 220 171 170 185 131 140 146 142 149 133 134 145 184 164 43 62 78 81 110 82 106 123 129 141 146 148 148 147 147 145 144 146 148 153 158 162 166 170 173 174 173 173 173 171 170 169 169 170 169 171 171 169 165 162 167 165 162 161 159 161 164 163 161 163 166 167 169 166 162 161 160 153 148 145 130 124 121 119 121 123 129 134 136 140 141 138 134 129 122 119 121 119
194 189 175 233 228 194 161 142 152 140 138 138 137 149 133 128 147 199 147 113 119 119 110 112 109 116 121 134 145 147 148 149 150 151 150 151 152 153 156 161 164 168 172 174 176 176 175 173 171 171 171 171 170 171 174 171 167 164 163 167 162 158 159 159 164 167 164 162 165 168 167 169 168 164 161 158 153 152 146 133 127 122 120 121 125 131 133 135 138 141 142 142 139 128 118 123 130
203 197 218 245 219 190 148 140 159 146 137 140 139 140 127 114 128 189 141 132 152 151 140 136 135 137 136 145 151 147 149 152 153 154 155 157 158 158 160 164 168 172 174 175 177 178 178 175 173 173 173 172 171 174 176 170 166 165 165 165 162 162 164 166 168 168 166 166 168 167 165 165 166 163 159 157 157 154 145 139 131 122 124 126 131 135 134 136 138 141 145 148 148 139 125 123 133
185 195 226 249 182 173 149 137 150 148 142 143 137 133 131 123 127 157 143 134 170 185 161 149 148 149 148 153 153 150 153 154 156 157 158 159 161 163 165 168 171 174 174 175 178 180 181 179 176 176 175 174 175 177 177 171 167 167 167 166 165 167 168 169 171 170 169 170 168 167 165 162 163 162 160 163 162 156 151 149 139 132 133 130 136 140 140 142 142 142 146 151 150 144 136 129 135
230 215 229 262 136 160 139 129 141 149 138 135 140 139 134 128 125 156 162 159 181 182 160 151 153 153 154 156 152 152 155 157 159 160 160 162 164 166 168 170 171 173 175 178 180 182 184 183 180 178 178 177 179 180 177 174 171 170 170 169 169 169 170 171 172 172 171 171 168 168 166 164 165 164 163 167 167 164 162 161 155 149 142 134 140 144 144 147 146 144 146 150 149 146 143 135 135
246 245 232 239 188 174 143 132 136 145 141 144 148 136 125 132 138 160 185 185 142 125 40 147 156 156 156 154 151 156 159 160 162 163 164 165 167 168 170 171 171 173 177 181 183 184 186 185 183 181 181 181 182 182 180 178 176 174 173 173 173 172 172 174 171 171 173 172 171 171 170 171 171 167 168 172 173 174 174 172 166 157 148 141 143 147 150 152 150 149 153 153 150 150 148 141 139
234 265 254 225 200 181 158 144 141 148 148 143 132 124 137 147 142 151 184 174 120 94 14 151 156 157 158 154 155 160 160 161 163 165 166 167 169 171 171 172 173 174 178 183 185 186 187 187 185 184 185 185 185 184 183 182 179 177 177 178 177 176 176 174 170 171 174 176 177 177 177 178 176 171 174 179 180 181 182 181 174 163 154 149 146 152 159 162 161 162 167 164 157 159 162 163 160
227 248 254 226 193 175 157 146 147 145 134 131 129 130 148 138 122 135 165 175 180 135 20 179 157 158 162 155 158 160 158 161 162 164 167 169 169 169 172 174 173 176 180 184 186 188 190 189 186 187 188 187 187 186 186 185 182 180 182 181 179 180 179 174 173 173 175 178 182 183 184 185 181 177 180 186 187 186 188 187 180 169 164 162 161 166 174 179 180 181 182 178 169 167 171 179 174
225 237 246 236 190 166 157 148 151 144 131 141 133 123 136 139 130 146 186 178 168 148 168 196 162 162 168 159 161 162 160 162 163 165 168 168 168 169 174 175 175 178 182 185 187 190 191 190 189 191 190 190 189 188 189 188 185 184 185 184 182 183 181 178 178 177 178 182 184 187 190 191 188 185 187 193 193 190 191 191 186 181 181 183 182 184 187 191 193 194 194 185 175 169 168 172 172
258 248 259 248 195 161 162 153 148 137 138 155 134 124 137 156 170 191 199 176 153 159 178 196 169 167 171 162 163 164 164 166 165 165 165 168 171 172 175 178 180 181 182 185 189 191 191 191 193 194 193 193 191 191 191 190 188 187 188 187 185 186 184 183 184 183 185 189 189 190 193 194 194 195 197 200 200 198 199 201 200 200 202 200 201 205 200 196 194 196 196 189 181 172 166 162 164
302 279 299 267 165 152 165 152 146 134 143 171 129 117 122 131 248 207 183 172 163 167 178 190 172 170 174 164 162 165 167 167 165 166 168 173 176 175 176 180 181 181 184 186 189 191 191 193 195 196 196 195 194 193 193 192 191 191 191 190 188 187 185 187 190 190 193 196 195 194 196 198 201 206 208 208 209 212 214 216 217 218 220 216 217 219 212 203 196 196 196 196 194 180 172 166 165
296 279 319 99 125 140 170 144 151 143 138 172 132 103 151 213 213 172 163 164 163 166 175 183 172 170 176 164 161 168 167 168 169 173 175 177 179 178 179 182 182 182 185 187 188 190 192 194 196 197 198 198 197 195 193 193 193 193 193 191 189 188 188 191 194 196 198 201 200 198 201 205 210 217 222 220 219 223 226 229 229 229 233 229 222 217 212 206 199 197 200 206 207 193 185 177 167
283 277 87 126 98 147 181 138 151 141 129 172 160 104 209 215 199 159 155 154 155 166 176 179 172 171 175 165 163 169 169 171 174 177 178 178 181 182 181 183 184 183 185 186 188 191 193 194 195 197 200 201 199 197 195 194 195 196 194 192 190 191 194 196 200 202 203 206 208 208 208 212 218 224 229 230 229 230 231 234 233 233 235 229 217 210 205 203 202 202 204 210 209 200 199 195 177
279 276 75 132 141 191 184 155 154 140 138 180 188 322 210 205 187 167 164 159 158 172 179 177 174 172 173 167 166 171 174 177 178 178 178 179 181 183 183 183 185 185 185 186 189 191 193 194 194 196 201 203 202 199 198 196 196 196 194 192 192 194 198 202 207 210 211 214 217 217 218 221 224 227 231 232 233 233 233 235 232 231 230 221 209 203 198 197 200 203 204 207 206 204 207 207 197
328 245 328 185 192 182 171 172 173 152 144 184 197 295 214 186 177 168 165 167 167 174 178 179 176 172 173 169 168 172 176 179 179 178 179 180 181 183 185 185 186 187 187 187 189 191 193 194 193 196 202 204 203 202 201 199 198 197 196 195 195 198 202 207 213 216 218 222 225 225 225 225 225 226 228 226 228 229 228 228 226 225 223 217 208 200 195 195 198 201 201 201 205 208 209 209 211
352 94 205 200 178 152 159 181 197 157 116 185 212 259 279 168 173 163 160 171 174 176 177 181 179 173 173 171 171 172 174 179 180 180 180 180 182 183 185 186 187 189 189 188 189 191 193 194 193 196 202 204 205 205 203 201 199 199 199 198 199 201 205 209 214 218 222 225 228 229 227 220 217 219 219 218 219 221 219 218 221 220 217 214 209 200 197 197 197 198 199 199 203 208 208 208 212
326 12 96 223 160 144 156 169 198 177 133 190 215 238 280 208 168 160 163 171 176 180 179 182 181 175 175 173 175 174 173 179 182 181 181 181 183 184 185 187 188 190 190 190 190 192 193 193 194 196 202 204 205 207 206 203 201 202 203 203 203 205 208 213 218 223 224 223 225 226 219 209 206 209 210 210 211 211 210 213 219 218 214 211 203 198 197 195 192 194 198 199 200 203 205 209 211
142 37 33 322 341 143 163 163 187 183 174 198 204 223 265 247 163 164 172 174 179 184 181 182 181 177 177 176 178 178 177 181 184 181 181 182 184 184 186 187 188 190 190 191 192 193 193 194 195 197 201 204 205 207 206 204 204 204 205 207 208 209 213 219 225 228 223 217 217 214 205 198 201 204 204 203 202 200 202 208 215 213 210 206 196 191 191 190 190 191 192 192 198 201 204 210 213
147 358 353 302 312 241 196 209 194 181 186 203 195 208 229 201 171 174 178 180 184 186 184 187 184 180 179 179 182 182 181 184 182 179 180 182 184 184 186 187 188 190 190 191 192 193 193 194 195 197 201 203 204 207 206 205 205 205 207 210 213 214 217 223 228 227 217 209 209 204 195 195 200 201 198 196 194 194 197 203 207 203 200 198 194 191 190 191 191 190 188 189 197 202 204 208 214
231 294 299 282 292 280 236 241 201 180 192 215 201 203 208 189 182 179 176 183 187 185 188 194 192 188 184 182 184 185 186 184 180 179 179 182 185 185 186 187 188 189 190 190 191 193 194 194 195 197 200 201 202 205 205 205 204 203 206 210 214 215 216 220 221 216 210 206 204 201 194 194 198 200 197 192 191 194 196 197 197 192 190 193 194 194 193 193 193 194 194 195 201 210 214 215 220
265 260 279 293 280 273 268 268 211 184 192 228 206 200 213 197 187 179 171 182 191 188 187 191 195 197 193 187 186 187 186 182 179 180 180 181 184 185 186 187 187 188 189 190 191 193 195 196 197 198 199 199 200 204 205 204 202 200 203 207 211 212 211 212 211 207 208 206 204 202 197 193 195 198 198 194 195 197 197 195 192 188 187 189 192 197 200 202 203 204 203 206 212 223 231 229 224
261 255 270 279 272 287 294 325 329 181 192 262 184 174 227 212 191 189 182 187 194 191 189 189 190 195 200 194 188 187 184 182 184 184 181 181 183 184 185 186 187 188 189 191 192 193 194 196 198 199 199 199 200 204 206 205 202 200 202 206 207 206 206 207 207 206 208 208 204 203 201 197 194 195 197 199 201 201 201 199 192 189 187 186 191 199 203 207 211 211 212 217 223 237 245 234 223
252 246 250 231 192 310 292 345 32 111 146 119 106 105 328 80 184 224 201 198 199 194 195 193 192 199 204 199 189 187 186 185 186 186 184 182 182 184 185 186 188 189 189 190 191 191 193 196 198 199 201 201 201 204 207 205 203 204 206 208 206 204 205 208 209 210 211 210 206 204 204 202 200 197 198 202 206 207 207 205 197 190 187 188 192 198 201 204 209 212 215 220 228 240 234 222 219
257 237 234 209 166 226 236 250 30 80 93 119 98 58 324 142 172 224 212 213 215 196 196 200 204 208 212 207 195 191 189 188 186 186 187 183 182 184 185 187 188 188 189 190 191 191 192 195 197 199 201 203 203 204 206 205 205 206 206 206 203 201 204 206 208 209 210 212 209 206 205 205 205 201 201 207 212 215 213 210 205 198 196 197 198 201 204 204 208 212 213 216 225 225 206 203 209
277 245 226 208 202 235 233 147 90 69 271 235 119 77 291 185 172 195 192 210 218 202 198 205 206 208 216 211 198 196 193 190 189 187 187 184 183 184 186 187 188 189 191 192 192 192 193 195 196 199 200 202 204 204 204 203 204 205 203 201 197 196 200 203 206 209 210 212 212 209 207 207 207 204 204 207 211 215 215 214 212 209 210 210 209 211 211 210 211 212 213 214 218 209 198 196 197
273 242 209 200 206 236 239 168 133 212 247 219 175 175 256 236 196 192 183 197 210 207 205 207 205 205 212 209 198 197 194 193 192 189 188 185 183 183 186 188 188 190 192 192 192 193 193 194 196 197 199 200 201 202 203 202 203 204 205 204 200 199 202 205 208 211 213 214 214 213 210 209 209 207 207 209 210 212 215 217 218 218 220 219 218 218 217 215 211 210 213 215 217 213 210 206 202
251 221 158 170 196 221 226 181 179 225 234 159 204 180 101 261 228 187 175 187 206 213 212 209 207 205 207 207 201 197 194 193 192 190 190 188 184 185 187 188 190 191 191 191 192 192 193 194 195 197 198 198 198 199 201 202 202 204 206 207 204 203 207 207 207 210 212 213 213 213 212 210 211 210 211 212 211 213 215 218 220 222 223 222 221 220 219 217 210 209 213 215 218 224 224 220 215
250 227 156 162 189 208 204 174 196 220 108 221 234 155 88 274 262 161 170 187 205 216 216 209 207 205 204 205 202 198 195 193 192 192 192 190 187 187 187 188 190 191 190 190 191 192 193 194 194 195 197 197 197 198 200 202 204 206 207 207 206 206 209 208 206 207 208 210 211 212 211 210 211 213 215 215 214 214 216 219 222 222 223 222 221 221 220 218 213 212 216 217 220 228 232 228 225
247 232 157 176 191 213 195 165 179 126 117 228 216 172 169 276 265 155 171 197 209 215 215 209 205 203 203 204 201 199 196 193 194 193 193 192 190 189 188 188 189 190 190 191 191 191 192 193 193 195 196 197 197 198 200 202 204 206 207 207 207 207 207 207 206 206 207 209 211 213 212 210 210 213 216 216 216 214 215 219 222 224 224 222 222 224 223 220 217 215 217 220 222 227 233 231 234
246 313 86 206 135 250 88 100 109 102 226 247 208 185 185 264 263 183 185 206 209 209 209 206 204 202 200 200 199 198 195 194 195 193 194 194 191 189 187 187 189 189 190 191 191 191 191 192 193 195 196 197 197 197 199 201 203 205 207 208 208 208 207 206 205 206 207 210 213 215 216 214 212 214 217 219 219 216 214 217 223 228 227 223 222 226 225 221 219 216 217 222 226 228 230 231 233
273 20 122 167 318 3 35 9 53 133 252 260 212 183 180 226 254 213 210 216 211 205 202 201 202 203 200 198 198 196 194 193 193 192 192 191 189 187 186 187 188 188 188 189 190 190 190 191 192 194 196 196 197 197 198 200 202 204 206 208 210 210 209 208 207 208 209 211 214 216 218 218 217 217 219 221 219 216 216 218 224 229 228 225 224 226 226 222 219 219 221 225 228 228 228 228 227
43 46 77 102 304 18 73 296 227 182 253 255 181 144 167 235 251 230 224 226 220 211 207 202 200 199 197 197 196 195 193 193 194 193 190 189 187 185 185 186 187 187 188 189 189 190 191 192 192 193 195 197 197 197 198 200 201 203 205 208 210 211 211 211 210 211 212 213 214 215 216 218 217 217 218 219 218 215 217 219 222 227 227 225 224 224 225 224 222 223 225 227 228 227 227 228 228
3 51 97 122 143 100 196 245 264 194 246 259 153 132 185 259 269 243 233 231 225 218 213 205 199 196 194 194 192 192 194 194 196 195 191 190 188 186 186 186 186 187 188 188 189 190 191 192 192 193 196 197 197 198 198 200 202 204 206 208 210 211 212 213 212 213 214 214 214 214 215 216 216 216 217 217 217 216 218 219 221 226 227 225 223 222 224 225 227 228 229 230 230 227 227 231 234
305 216 150 142 148 136 193 204 171 195 239 295 9 145 186 198 241 254 251 245 232 223 218 206 200 197 191 187 186 189 194 196 197 198 195 192 189 188 187 187 188 188 188 188 189 190 191 192 193 194 196 196 197 198 199 200 202 204 206 208 210 212 213 215 215 215 216 216 215 214 215 216 216 217 216 216 217 217 218 221 223 226 227 225 223 222 224 227 231 234 237 237 235 230 230 234 238
284 285 90 25 172 158 207 192 171 166 138 343 281 201 211 207 264 340 339 314 275 242 224 202 195 191 180 181 188 191 194 195 197 199 197 193 189 189 188 188 190 189 188 189 190 190 191 192 194 195 196 196 197 198 199 201 203 204 206 207 210 212 213 216 218 217 217 218 218 215 215 217 219 219 217 217 218 217 219 221 224 228 229 227 224 222 225 228 234 241 243 242 238 235 235 238 241
283 28 359 271 235 165 194 257 186 100 107 267 240 231 289 291 354 2 359 353 350 341 280 218 197 181 177 187 192 194 194 193 196 198 197 193 189 190 189 189 189 190 189 190 191 192 192 193 194 196 196 197 198 199 200 202 203 205 206 207 209 211 212 215 218 219 219 220 220 219 218 220 222 223 222 220 219 219 220 223 226 229 230 230 227 224 225 228 236 244 244 241 239 236 239 242 243
60 43 297 288 277 132 133 232 6 60 128 266 243 175 348 356 337 347 356 356 348 348 336 287 229 187 185 193 194 195 195 194 196 197 196 195 191 191 191 191 191 192 192 192 192 192 193 194 195 195 196 197 198 200 201 202 203 204 206 207 208 210 212 214 218 220 221 221 222 220 220 223 226 226 226 224 223 221 221 224 228 230 232 232 230 227 226 228 237 243 242 242 242 238 240 243 241
64 206 294 345 72 42 1 104 132 88 157 272 279 156 57 15 333 339 352 349 339 338 339 324 283 218 201 198 196 197 196 193 194 194 195 197 194 192 192 192 193 193 193 193 192 192 193 195 196 196 197 198 199 200 201 203 204 205 206 208 209 210 212 214 217 220 221 222 222 221 221 225 228 228 228 227 225 224 223 225 227 230 232 233 233 230 228 230 238 244 243 244 242 236 238 241 239
14 10 359 21 102 164 318 158 161 196 167 224 289 37 33 293 319 340 344 346 343 337 335 331 305 253 222 208 201 197 195 194 193 193 195 196 195 194 193 193 193 193 194 193 192 192 194 196 197 198 198 199 199 200 201 203 204 205 206 208 209 211 212 214 215 218 220 221 221 221 222 225 227 228 228 227 227 226 225 225 227 230 231 233 234 231 229 232 238 243 244 244 241 234 234 239 241
357 18 25 6 347 345 320 339 24 68 133 181 99 55 277 261 323 347 351 356 349 340 335 330 318 281 236 218 210 200 195 195 193 194 195 194 195 194 194 194 193 192 192 192 192 194 195 196 197 198 199 199 200 201 201 203 204 205 206 207 209 211 213 214 215 217 220 221 221 221 223 225 226 228 228 228 228 227 227 227 227 229 231 232 234 232 230 232 236 240 242 242 240 236 235 239 242
26 40 33 2 350 19 31 350 341 23 82 189 141 157 248 273 8 353 6 11 353 344 341 334 332 317 254 219 211 205 202 199 196 194 193 192 193 193 193 193 191 190 190 192 193 194 195 197 198 199 200 200 201 201 202 203 204 205 207 208 209 211 213 215 215 216 219 220 221 221 223 224 225 227 228 229 229 229 229 229 229 231 231 232 234 235 234 234 235 238 240 241 240 238 238 239 241
Height
777 779 780 782 782 783 785 786 801 804 805 818 812 808 801 790 791 792 794 791 789 787 781 782 782 784 789 794 795 794 796 800 806 813 815 802 796 802 804 806 808 809 811 811 811 813 814 816 818 819 820 820 821 822 823 824 824 825 825 826 826 827 828 828 828 829 829 829 830 830 831 831 831 832 832 832 833 833 833 833 833 833 834 834 834 834 834 835 835 836 836 836 836 836 837 838 839
778 780 780 783 782 786 789 786 806 812 811 821 811 804 798 791 794 794 794 791 788 784 780 781 782 784 785 786 788 792 797 797 796 798 800 797 799 803 804 807 808 810 811 812 813 814 816 818 819 821 821 822 822 823 824 825 825 826 827 827 828 828 829 829 829 830 830 830 831 831 832 832 832 832 833 833 833 834 834 834 834 834 835 835 835 835 836 836 836 837 837 837 837 837 838 838 839
778 779 780 783 783 785 788 791 808 814 816 821 809 798 793 795 795 792 789 787 783 779 781 782 782 785 786 790 791 796 801 797 794 794 797 799 798 802 806 807 809 811 812 813 815 815 817 818 820 821 822 823 824 824 825 826 826 827 827 828 829 829 830 830 830 831 831 832 832 832 833 833 833 833 833 834 834 835 835 835 835 835 835 836 836 836 837 837 837 837 837 838 838 838 839 839 839
778 779 780 781 785 789 793 801 807 811 817 816 808 796 791 795 792 789 785 782 780 777 782 783 786 786 786 795 794 796 801 797 794 793 797 798 798 801 805 807 810 811 813 814 815 816 818 819 820 821 823 824 824 825 826 827 827 828 828 829 830 830 831 831 831 832 832 833 833 834 834 834 834 834 834 834 835 835 836 836 836 836 837 837 837 837 837 837 838 838 838 838 839 839 839 840 840
778 780 780 781 789 792 795 803 805 810 811 805 804 797 791 792 789 788 783 781 779 778 781 782 790 788 786 792 791 796 799 796 795 793 795 798 798 801 804 807 810 811 814 815 816 817 818 820 821 822 823 824 825 826 827 827 828 828 829 830 831 831 832 832 833 833 834 834 834 835 835 835 835 835 835 835 836 836 837 837 837 838 838 838 838 838 839 839 839 839 839 839 840 840 840 841 841
779 781 781 781 787 789 797 806 806 809 799 792 799 795 791 789 787 786 782 783 779 778 779 781 788 789 792 791 788 793 793 794 794 793 794 797 800 802 805 807 810 812 814 815 817 818 819 821 821 823 824 825 825 826 827 828 829 829 830 831 832 832 833 833 834 834 834 835 835 836 836 836 836 836 836 836 837 837 838 838 838 839 839 839 839 840 840 840 840 840 841 841 841 841 841 842 842
778 782 784 786 789 790 803 810 805 805 792 786 791 790 790 787 785 786 785 786 784 781 779 782 782 789 798 792 792 792 789 791 791 793 795 797 801 803 805 807 810 812 814 816 817 819 820 821 822 824 824 825 826 827 828 829 830 830 831 832 832 833 834 834 834 835 835 836 836 836 836 836 836 836 837 837 838 838 839 839 840 840 840 840 841 841 841 842 842 842 842 842 842 842 842 842 843
778 783 784 791 798 797 805 807 801 799 789 784 785 784 787 786 784 786 787 786 787 785 782 783 779 792 800 791 797 795 789 792 792 794 795 798 802 804 806 807 810 812 815 816 818 820 821 822 823 824 825 826 827 828 829 830 831 831 832 832 833 834 834 835 835 836 836 836 837 837 837 837 837 838 838 839 839 839 840 840 841 841 841 842 842 842 843 843 843 843 843 843 843 843 843 844 844
778 783 786 793 801 802 804 803 798 792 787 785 784 782 783 785 784 786 787 786 785 786 785 782 779 794 800 794 800 795 790 794 794 797 797 800 803 804 807 808 810 812 815 817 818 820 821 823 824 825 826 827 828 829 830 831 831 832 833 833 834 834 835 836 836 836 836 837 837 838 838 839 839 839 840 840 840 841 841 841 842 842 842 843 844 844 844 844 844 845 844 844 844 844 845 845 845
781 784 788 795 801 805 805 800 796 791 787 783 783 782 781 783 784 786 789 787 784 786 785 780 782 793 798 800 801 795 794 795 796 799 800 802 804 806 808 809 811 812 815 817 819 821 822 824 824 826 827 828 829 830 831 831 832 832 833 834 835 835 836 836 836 837 837 838 838 839 840 840 840 840 841 841 842 842 842 843 843 843 844 844 845 845 845 846 846 846 846 846 846 846 846 846 847
786 785 787 798 804 808 806 800 795 791 786 782 783 781 780 781 783 787 788 787 783 785 785 782 790 793 796 802 802 797 796 797 798 800 802 804 806 807 809 810 812 813 816 817 819 821 822 824 825 827 828 829 829 830 831 832 833 833 834 834 835 835 836 837 837 838 838 839 840 840 841 841 841 841 842 842 843 843 844 844 844 845 845 846 846 846 847 847 847 847 847 847 847 847 847 848 848
790 790 790 803 806 805 802 799 795 791 787 784 786 782 780 781 784 787 788 787 783 786 786 784 789 789 798 805 801 798 798 800 800 801 804 805 807 809 810 812 814 815 817 818 820 822 823 825 826 828 829 830 830 831 832 833 834 834 835 835 836 836 837 838 838 839 839 840 841 841 842 842 843 842 843 843 844 844 845 845 845 846 846 847 847 847 848 848 848 848 849 848 848 848 848 849 849
790 790 794 803 800 799 798 798 793 791 791 786 787 783 780 782 784 786 786 786 784 789 786 780 782 784 798 805 800 800 800 802 802 803 805 807 809 810 812 813 815 817 818 820 821 822 824 825 827 828 829 830 831 832 833 833 834 835 836 836 836 836 837 838 839 840 840 841 842 842 843 843 843 844 844 844 845 845 845 846 846 847 847 848 848 848 849 849 850 850 850 850 849 849 850 850 850
786 786 793 800 796 796 795 796 794 793 794 786 785 782 779 782 783 783 784 788 788 787 781 776 777 785 798 804 805 804 800 802 802 805 806 808 810 811 813 814 816 818 819 821 822 823 824 826 827 829 830 831 832 833 834 834 835 836 836 837 837 837 838 839 840 840 841 842 842 843 843 844 844 845 845 845 846 846 846 847 847 848 848 849 849 849 850 850 851 851 851 851 851 851 851 851 851
782 783 789 798 799 799 792 793 793 794 795 786 783 780 781 783 780 783 785 789 789 780 777 778 776 785 796 797 802 800 798 802 802 805 807 809 811 812 815 816 818 819 821 822 823 824 825 826 827 829 830 831 832 833 835 835 836 837 837 838 838 839 839 840 840 841 842 842 843 843 844 845 845 845 846 847 847 847 847 848 848 849 849 850 850 851 851 851 852 852 852 852 852 852 852 852 853
778 782 791 799 802 801 793 790 790 794 794 784 781 780 785 786 780 785 784 783 786 778 779 783 778 782 789 789 791 792 795 801 802 806 807 810 812 814 816 817 819 820 822 823 824 825 825 827 828 829 830 831 833 833 835 836 837 838 838 839 839 840 840 841 842 842 842 843 843 844 845 845 846 846 847 848 848 848 849 849 850 850 851 851 851 852 852 852 853 853 853 853 853 853 854 854 854
776 784 797 802 800 798 791 788 787 791 790 783 783 782 788 790 783 783 780 778 784 783 782 783 779 778 784 786 788 790 796 800 802 806 807 811 813 815 817 818 820 821 823 823 824 826 826 828 828 830 830 832 833 834 835 836 837 838 839 839 840 841 841 842 842 843 843 843 844 844 845 846 846 847 848 849 849 849 850 850 851 851 852 852 852 853 853 853 854 854 854 855 855 855 855 855 855
781 791 799 802 797 791 784 783 782 782 785 784 784 782 785 790 787 783 782 784 786 785 784 783 782 781 783 787 790 793 797 800 802 805 807 810 812 814 817 818 820 821 822 824 825 826 827 828 829 830 831 832 833 834 836 836 837 838 839 840 840 841 842 843 843 843 844 844 845 845 846 846 847 848 849 849 850 850 851 851 851 852 853 853 853 854 854 854 855 855 855 856 856 856 856 856 857
784 790 797 796 787 780 775 777 777 777 783 783 782 780 781 785 786 784 787 792 789 789 788 786 789 789 788 789 793 796 797 800 802 805 807 809 812 813 816 818 820 821 822 824 825 826 827 828 829 830 831 833 834 835 836 836 838 838 839 840 841 842 842 843 843 844 844 845 845 846 847 847 848 849 850 850 850 851 851 852 852 853 854 854 854 855 855 855 856 856 857 857 857 857 858 858 858
781 787 796 789 776 775 772 774 774 774 778 781 782 780 780 782 783 784 789 793 792 792 790 789 794 793 791 792 793 796 798 801 803 805 808 809 811 813 815 817 819 820 822 823 825 826 827 828 829 831 832 833 834 835 836 837 838 839 840 841 841 842 842 843 844 845 845 846 846 847 848 848 849 850 851 851 851 852 852 853 853 854 854 855 855 855 856 856 857 857 858 858 858 859 859 859 859
779 783 789 778 770 775 773 772 773 772 774 778 782 782 784 783 782 785 788 795 796 792 786 785 790 790 790 791 792 796 798 801 803 806 808 810 812 814 816 817 819 820 822 824 825 826 827 828 830 831 832 833 834 835 836 837 838 839 840 841 842 842 843 844 845 846 846 847 847 848 849 849 850 851 851 852 852 853 853 854 855 855 855 856 856 856 857 857 857 858 858 859 859 860 860 860 860
778 777 775 770 770 775 772 769 771 771 773 777 781 784 785 783 784 786 788 794 795 787 783 782 784 785 786 788 791 795 798 801 803 805 808 810 812 814 816 818 819 821 823 824 825 826 827 829 830 831 833 834 835 836 837 838 838 839 840 841 842 843 844 845 846 847 847 848 848 849 850 850 851 851 852 853 853 853 854 855 856 856 857 857 857 857 858 858 858 859 859 860 860 861 861 861 861
779 776 768 768 769 772 771 768 771 771 775 780 780 780 781 784 788 786 786 790 786 780 779 779 781 783 785 788 791 794 797 800 802 804 807 809 812 814 816 817 819 821 823 824 825 826 827 829 830 831 833 834 835 836 837 838 839 840 841 842 843 844 844 845 847 847 848 849 849 850 850 851 851 852 853 853 854 854 855 856 857 858 858 858 858 859 859 859 860 860 860 861 861 861 861 862 862
777 777 768 767 765 768 768 768 771 772 776 778 776 777 781 786 787 785 787 786 782 779 778 778 780 783 785 789 792 795 797 799 802 805 807 809 812 813 816 817 819 821 822 824 825 826 827 829 830 831 833 834 835 836 837 838 839 840 841 842 843 844 845 846 847 848 849 849 850 851 851 852 852 853 854 854 855 855 856 857 857 858 859 860 859 860 860 860 861 861 861 861 862 862 862 862 862
774 774 767 764 763 764 765 767 772 772 775 776 776 781 783 783 784 787 788 785 782 779 779 779 781 784 787 790 793 796 798 800 803 806 808 811 812 815 817 818 819 821 822 823 825 826 827 829 830 831 832 834 835 836 838 839 840 841 842 843 844 845 846 847 848 849 849 850 850 851 852 852 853 853 854 855 855 856 856 857 858 859 860 860 860 860 861 861 862 862 862 862 862 863 862 862 863
768 766 763 762 762 763 764 768 772 773 774 775 779 785 785 781 783 789 786 782 782 779 780 781 782 786 788 790 793 795 798 800 802 805 808 811 813 815 816 818 819 820 822 823 824 825 827 829 830 831 832 834 835 837 838 839 840 841 842 843 844 845 846 847 848 849 850 850 851 852 852 853 853 854 854 855 856 856 857 858 858 859 860 861 861 861 861 861 862 862 862 863 863 863 863 863 863
760 760 759 758 760 761 763 767 770 773 775 775 780 787 786 782 787 793 786 780 781 780 782 782 783 788 788 790 792 794 797 799 801 805 808 810 812 814 816 818 819 820 821 823 824 825 827 829 830 831 832 834 835 837 838 839 840 841 842 843 845 846 847 848 849 849 850 850 851 852 853 853 854 854 855 855 856 857 857 858 859 860 860 861 861 861 861 862 862 862 863 863 863 863 864 864 864
757 758 759 757 757 762 764 767 771 773 777 776 778 786 787 784 789 790 783 780 780 781 784 783 784 787 788 790 792 794 797 799 801 804 806 808 810 812 814 816 817 819 821 821 823 825 827 828 829 831 832 834 835 836 838 839 840 841 843 844 845 846 847 848 849 850 850 851 852 852 853 853 854 854 855 855 856 857 857 858 859 860 860 861 861 861 861 862 862 862 863 863 864 864 864 864 865
757 756 765 766 763 769 768 768 771 772 779 775 775 791 796 790 788 782 778 779 779 781 784 783 784 786 787 790 792 794 796 798 801 802 804 807 809 811 812 814 816 818 820 821 823 825 826 828 829 831 832 833 834 836 837 839 840 841 843 844 845 846 848 849 849 850 850 851 852 852 853 854 854 855 855 856 856 857 857 858 859 859 860 861 861 862 861 862 862 862 863 863 864 864 865 865 865
760 758 768 775 778 780 771 768 772 773 777 770 775 799 801 790 785 779 777 778 780 783 784 783 783 785 787 789 792 794 795 797 798 800 803 806 808 810 812 814 816 817 819 821 823 824 826 827 829 831 832 833 834 836 837 838 840 841 843 844 845 846 847 849 849 850 851 851 852 852 853 854 854 855 855 856 856 856 857 858 858 859 860 860 861 861 862 862 862 862 863 863 863 864 865 865 866
763 765 770 779 789 786 770 768 774 777 777 768 778 799 794 784 782 778 776 776 779 784 784 782 782 784 786 788 791 793 794 795 797 799 802 805 808 810 812 814 815 817 818 820 821 823 825 827 829 830 831 833 834 835 836 838 840 841 843 844 845 846 847 848 849 850 850 851 852 852 853 854 854 855 855 855 856 856 857 857 858 859 859 860 861 861 862 862 862 862 863 863 863 864 865 865 866
766 774 781 783 787 784 773 770 772 776 777 771 782 795 787 781 779 775 775 776 778 782 783 782 781 783 785 787 790 792 793 794 796 799 801 804 807 809 811 813 814 816 817 819 820 823 825 826 828 830 831 832 833 835 836 838 839 841 843 844 845 846 847 848 849 849 850 851 852 852 853 854 854 855 855 856 856 856 856 857 857 858 859 860 860 861 862 862 862 863 863 864 864 864 865 865 866
773 776 785 784 784 788 783 775 769 772 778 778 783 790 786 780 776 775 776 777 779 781 782 781 780 781 783 786 788 790 793 794 796 797 800 802 805 807 809 811 813 815 816 818 819 821 824 826 828 829 830 831 833 834 836 837 839 841 842 844 845 846 847 848 848 849 850 851 851 852 853 854 854 855 855 856 856 857 857 857 857 858 859 860 860 861 861 862 863 863 864 864 864 864 865 865 866
782 779 782 780 780 788 789 782 772 770 779 783 784 787 785 776 773 776 776 777 780 780 781 780 779 779 781 784 786 788 791 793 794 795 797 800 803 806 808 810 812 814 816 817 818 820 822 825 827 828 830 831 833 834 835 837 838 840 842 844 845 846 847 847 848 849 850 851 851 852 853 853 854 855 855 856 856 857 857 857 858 858 859 859 860 860 861 862 863 864 864 864 865 865 865 866 866
786 784 783 783 780 783 787 783 773 770 779 783 787 790 785 777 774 776 776 775 778 778 778 778 776 777 779 782 784 786 788 790 790 791 795 798 801 804 806 809 811 813 815 816 818 819 821 824 826 828 829 830 832 834 835 837 838 840 842 843 845 845 847 847 848 848 849 850 851 852 853 853 854 855 855 856 857 857 857 857 858 858 859 859 860 860 861 862 863 864 864 864 865 865 866 866 867
782 782 783 786 785 782 779 774 765 766 778 782 785 788 782 779 778 777 776 775 777 779 778 778 776 775 777 780 782 783 786 787 787 789 793 796 799 802 805 807 809 811 814 815 817 819 820 823 825 827 828 830 832 833 835 836 838 839 841 842 843 844 846 846 847 848 849 850 851 852 852 853 854 855 856 856 857 857 857 858 858 858 859 859 860 861 861 862 863 864 864 865 865 866 866 866 867
777 780 782 783 785 783 774 768 761 761 776 779 777 781 779 777 777 775 776 777 778 780 780 781 779 776 775 777 779 780 782 783 784 788 791 794 797 800 803 805 808 810 812 814 815 817 819 821 823 825 827 829 830 832 833 835 836 837 839 840 841 843 844 845 846 847 848 849 850 851 852 853 854 855 856 856 857 857 858 858 859 859 859 860 860 861 862 863 863 864 864 865 865 866 866 866 867
776 780 782 783 785 780 769 765 761 758 773 777 772 780 782 776 776 774 774 778 778 776 777 779 779 778 776 775 777 778 779 780 782 786 788 792 795 797 801 803 805 808 809 812 813 815 817 819 821 823 826 828 829 831 832 833 834 835 837 838 840 842 843 844 845 847 848 849 850 851 852 853 854 854 855 856 857 857 858 859 859 859 860 860 861 862 862 863 864 864 864 865 866 866 866 866 867
776 779 783 787 783 776 769 765 762 760 771 778 774 782 784 777 776 775 773 774 774 771 772 774 776 779 777 775 776 776 779 781 781 783 785 789 792 795 798 801 803 805 807 809 811 813 816 817 819 822 824 826 828 830 831 832 833 835 836 838 840 841 842 844 845 846 848 849 849 851 852 853 854 854 855 856 857 857 858 859 859 860 860 861 862 862 863 863 864 864 865 865 866 866 866 866 867
777 778 783 788 781 779 779 772 769 765 770 778 776 780 783 780 781 779 774 773 773 772 772 773 775 776 775 772 773 774 777 779 780 781 783 786 789 793 795 798 800 803 805 807 809 811 813 815 817 820 822 824 826 828 830 832 833 835 837 839 840 841 843 844 845 847 847 848 849 850 851 852 853 854 855 856 856 857 858 858 859 860 861 861 862 862 863 863 864 865 865 866 866 866 866 866 867
777 774 779 784 779 778 778 773 772 772 774 774 773 785 787 781 786 785 777 776 775 774 775 776 776 774 774 772 772 772 772 774 777 779 780 782 786 789 792 795 798 800 802 804 806 808 810 812 815 817 820 822 825 827 829 831 833 835 837 839 840 841 843 844 845 846 847 847 849 850 851 852 853 854 855 855 856 857 857 858 859 860 861 861 862 862 863 863 864 865 865 866 866 866 866 866 867
780 771 769 774 775 773 772 772 774 783 789 774 772 798 798 779 782 786 782 782 779 776 776 777 776 774 774 774 772 771 771 771 773 774 777 779 783 787 790 792 795 797 799 801 804 806 808 810 813 816 818 820 823 826 828 830 832 834 836 837 838 839 841 842 842 844 845 846 847 849 850 851 852 853 854 855 856 856 857 858 859 859 860 861 861 862 863 863 864 864 865 866 866 866 866 866 867
784 768 759 765 769 770 772 773 777 788 792 773 765 790 799 782 778 778 778 783 781 777 777 774 774 773 772 771 770 770 770 770 770 772 774 776 780 783 786 789 792 794 797 799 802 804 806 808 811 813 816 818 822 824 827 829 831 832 834 835 836 837 838 839 840 842 844 845 847 848 849 850 852 853 854 855 855 856 857 858 858 859 860 860 861 862 862 863 864 864 865 866 866 866 867 867 867
779 759 754 762 765 768 770 770 775 777 776 775 770 775 791 790 776 769 773 781 783 778 775 772 769 769 768 767 767 766 767 768 769 771 771 773 776 778 782 785 788 791 794 798 800 802 804 807 809 811 814 816 819 823 825 827 829 831 832 834 835 835 836 837 839 841 843 845 846 847 849 850 851 852 853 854 855 856 857 857 858 859 859 860 861 861 862 863 864 864 865 865 866 866 867 867 867
764 749 754 759 759 762 763 766 772 771 774 790 786 776 793 796 774 766 772 779 784 777 771 768 765 765 764 764 764 763 764 764 765 768 768 769 772 774 778 781 785 789 792 795 797 800 803 805 807 810 812 815 817 821 823 826 828 829 831 832 833 834 836 837 839 841 843 844 845 847 848 849 850 851 852 853 855 856 856 857 858 859 859 860 860 861 862 862 863 864 864 865 866 866 867 867 867
751 746 754 756 757 758 759 765 768 771 782 794 789 780 794 798 778 772 777 778 777 768 762 761 759 760 760 760 761 760 761 762 762 764 765 766 769 771 775 779 783 787 789 792 795 798 801 803 806 808 810 813 815 819 821 824 826 828 829 830 832 834 835 837 838 840 841 843 844 846 847 848 849 850 852 853 854 855 856 857 857 858 859 859 860 860 861 862 863 863 864 865 866 866 867 867 867
745 750 756 757 762 760 762 767 766 779 791 784 778 776 785 796 785 774 771 762 757 756 757 758 755 756 755 755 757 757 758 759 760 761 762 764 767 771 775 778 781 784 787 791 793 796 798 800 803 806 808 811 813 816 819 821 824 826 827 829 830 832 834 835 837 838 840 841 842 844 845 847 848 849 850 852 853 854 855 856 856 857 858 858 859 859 860 861 862 863 864 865 866 866 867 867 867
750 756 760 764 771 769 773 775 772 791 796 775 768 771 781 795 782 765 755 742 739 746 751 752 751 750 751 751 752 752 754 756 757 760 761 763 766 769 773 775 778 782 785 788 791 793 796 798 801 804 807 809 811 814 817 819 822 824 826 828 829 831 833 834 835 836 837 839 840 842 844 845 846 848 849 850 851 852 853 854 855 856 856 857 858 859 860 861 862 863 864 865 865 866 867 867 867
756 759 762 775 785 786 791 792 788 795 789 770 768 772 783 789 768 753 750 739 736 739 738 740 743 745 747 748 749 749 751 753 754 757 758 761 763 765 769 771 775 778 781 784 788 790 793 795 798 801 804 807 809 812 814 816 819 821 823 826 828 830 832 833 834 835 836 837 839 840 842 843 845 846 847 848 849 851 852 853 854 855 856 857 857 858 860 861 862 863 863 864 865 866 866 867 867
763 764 766 780 792 800 806 806 801 797 782 769 770 773 783 783 758 743 742 736 732 730 729 731 733 737 740 742 745 747 749 750 751 753 755 757 759 761 764 767 771 774 777 780 784 787 790 793 795 798 801 804 807 809 812 814 816 818 821 824 826 829 830 832 833 834 835 837 838 839 841 842 843 844 846 847 848 850 851 852 853 854 855 856 857 858 859 860 862 862 863 864 864 865 866 866 867
767 762 764 772 780 793 801 799 797 794 783 776 776 776 779 773 752 736 733 731 728 725 724 725 727 730 734 738 743 746 747 748 748 749 751 752 754 757 761 764 767 770 773 777 780 783 786 789 792 794 797 801 804 806 809 811 814 816 819 822 824 827 829 831 832 834 835 836 837 838 840 841 842 843 845 846 848 849 851 852 853 854 855 856 857 858 859 860 861 862 863 863 864 864 865 866 866
767 759 766 773 774 782 787 783 781 782 784 784 780 773 765 753 742 737 736 733 729 727 725 725 728 730 733 739 741 741 743 744 745 746 747 748 750 754 757 760 764 767 770 773 776 779 782 785 788 791 794 798 801 804 806 809 811 814 817 819 822 825 827 829 831 833 834 835 837 838 839 840 841 843 845 846 848 849 850 851 852 853 855 856 857 858 859 860 861 862 862 863 863 864 864 865 866
770 768 776 774 768 775 782 780 776 778 789 791 780 769 759 750 746 745 743 739 737 736 733 729 728 728 732 736 736 736 737 739 740 741 742 744 746 750 753 756 760 763 766 769 771 774 778 782 785 789 792 795 798 801 803 806 809 812 815 817 820 822 825 827 828 830 832 834 836 837 838 840 841 843 844 845 847 848 849 851 851 852 854 855 856 857 858 859 860 861 862 862 863 863 864 864 865
776 781 776 764 760 766 773 780 785 789 797 792 778 772 774 776 770 757 750 749 746 744 741 737 732 729 730 729 728 730 730 731 734 736 738 740 742 746 749 751 755 758 761 764 768 772 776 779 782 786 789 792 795 798 801 804 807 809 812 815 817 819 822 824 826 828 831 832 834 836 837 839 840 842 843 844 846 847 849 850 851 852 853 854 856 857 858 859 860 860 861 862 862 863 863 863 864
773 777 769 766 774 778 777 783 790 796 801 794 780 778 788 794 787 771 764 761 755 749 746 743 739 733 728 724 723 723 725 727 731 733 736 737 738 741 745 748 751 755 758 762 766 771 774 777 780 782 785 788 792 796 799 801 804 806 809 812 814 817 819 822 824 826 829 830 832 834 835 837 839 840 842 843 844 846 847 849 849 851 852 853 855 856 857 858 859 859 860 861 862 862 863 863 863
770 774 774 775 783 788 787 786 788 791 798 796 786 789 796 790 781 777 772 767 761 755 749 745 741 734 726 722 720 719 722 724 726 728 730 731 733 736 740 744 748 752 757 761 765 769 771 774 778 780 783 786 789 792 795 798 801 804 806 809 812 814 817 819 822 824 826 828 829 831 833 835 837 838 840 841 842 844 845 847 848 849 851 852 853 854 856 857 858 858 859 860 861 862 862 862 863
788 791 796 795 790 788 786 786 788 791 796 797 794 800 802 783 772 775 774 770 766 760 753 746 739 731 723 719 718 717 717 718 719 722 724 726 729 732 736 741 745 750 755 759 763 766 769 772 775 778 781 784 787 790 792 795 798 801 804 806 809 812 815 817 820 822 824 825 827 829 831 833 835 836 838 839 841 842 843 845 846 848 849 850 851 853 854 855 856 857 858 859 860 861 861 862 862
800 803 809 809 802 799 800 797 795 796 799 802 803 807 800 778 769 773 773 771 769 762 757 748 737 728 719 714 714 714 715 714 714 716 719 722 725 728 733 738 743 748 752 755 759 762 766 769 772 775 778 781 784 787 790 793 796 799 801 804 807 809 812 815 818 820 821 823 825 827 829 831 832 834 836 837 838 840 842 843 845 846 847 849 850 851 853 854 855 856 857 858 859 860 860 861 861